| time (UTC) | temp C | wind direction | speed KPH | gust KPH | rain 1hr cm | rain 24hr cm | rain mn cm | humidity % | barometer mb |
| 20260906113707 | 23 | 144 | 1.6 | 6.4 | 0.00 | 0.00 | 0.99 | 100 | 1015.0 |
| 20260906113207 | 23 | 156 | 1.6 | 4.8 | 0.00 | 0.00 | 0.99 | 100 | 1015.0 |
| 20260906112707 | 23 | 137 | 3.2 | 11.3 | 0.00 | 0.00 | 0.99 | 100 | 1015.0 |
| 20260906112206 | 23 | 202 | 3.2 | 6.4 | 0.00 | 0.00 | 0.99 | 100 | 1014.0 |
| 20260906111706 | 23 | 143 | 1.6 | 6.4 | 0.00 | 0.00 | 0.99 | 100 | 1014.0 |
| 20260906111206 | 23 | 194 | 4.8 | 11.3 | 0.00 | 0.00 | 0.99 | 100 | 1014.0 |
| 20260906110706 | 23 | 208 | 4.8 | 12.9 | 0.00 | 0.00 | 0.97 | 100 | 1015.0 |
| 20260906110207 | 23 | 130 | 8.0 | 14.5 | 0.00 | 0.00 | 0.94 | 100 | 1015.0 |
| 20260906105706 | 23 | 136 | 6.4 | 12.9 | 0.00 | 0.00 | 0.94 | 100 | 1014.0 |
| 20260906105206 | 23 | 124 | 3.2 | 9.7 | 0.00 | 0.00 | 0.94 | 100 | 1015.0 |
| 20260906104707 | 23 | 90 | 6.4 | 14.5 | 0.00 | 0.00 | 0.94 | 100 | 1015.0 |
| 20260906104207 | 23 | 190 | 4.8 | 14.5 | 0.00 | 0.00 | 0.94 | 100 | 1015.0 |
| 20260906103706 | 23 | 98 | 4.8 | 9.7 | 0.00 | 0.00 | 0.94 | 100 | 1015.0 |
| 20260906103206 | 23 | 191 | 3.2 | 9.7 | 0.00 | 0.00 | 0.86 | 100 | 1015.0 |
| 20260906102706 | 23 | 165 | 1.6 | 4.8 | 0.00 | 0.00 | 0.58 | 100 | 1015.0 |
| 20260906102206 | 23 | 159 | 1.6 | 4.8 | 0.00 | 0.00 | 0.41 | 100 | 1015.0 |
| 20260906101707 | 23 | 214 | 3.2 | 6.4 | 0.00 | 0.00 | 0.38 | 100 | 1015.0 |
| 20260906101206 | 23 | 191 | 3.2 | 8.0 | 0.00 | 0.00 | 0.38 | 100 | 1015.0 |
| 20260906100707 | 23 | 271 | 3.2 | 6.4 | 0.00 | 0.00 | 0.38 | 100 | 1015.0 |
| 20260906100207 | 23 | 248 | 1.6 | 4.8 | 0.00 | 0.00 | 0.38 | 100 | 1015.0 |
| 20260906095706 | 23 | 142 | 0.0 | 4.8 | 0.00 | 0.00 | 0.36 | 100 | 1015.0 |
| 20260906095206 | 23 | 182 | 4.8 | 12.9 | 0.00 | 0.00 | 0.28 | 100 | 1015.0 |
| 20260906094706 | 24 | 295 | 3.2 | 9.7 | 0.00 | 0.00 | 0.23 | 100 | 1015.0 |
| 20260906094207 | 24 | 135 | 3.2 | 4.8 | 0.00 | 0.00 | 0.23 | 100 | 1014.0 |
| 20260906093706 | 24 | 215 | 1.6 | 4.8 | 0.00 | 0.00 | 0.23 | 100 | 1014.0 |
| 20260906093206 | 24 | 140 | 3.2 | 8.0 | 0.00 | 0.00 | 0.23 | 100 | 1014.0 |
| 20260906092706 | 24 | 161 | 4.8 | 9.7 | 0.00 | 0.00 | 0.23 | 100 | 1014.0 |
| 20260906092206 | 24 | 81 | 4.8 | 9.7 | 0.00 | 0.00 | 0.23 | 100 | 1015.0 |
| 20260906091706 | 25 | 55 | 3.2 | 4.8 | 0.00 | 0.00 | 0.20 | 100 | 1015.0 |
| 20260906091206 | 25 | 157 | 1.6 | 11.3 | 0.00 | 0.00 | 0.08 | 100 | 1015.0 |
| 20260906090708 | 25 | 68 | 8.0 | 16.1 | 0.00 | 0.00 | 0.03 | 100 | 1015.0 |
| 20260906090206 | 25 | 44 | 6.4 | 14.5 | 0.00 | 0.00 | 0.00 | 100 | 1015.0 |
| 20260906085707 | 25 | 78 | 6.4 | 12.9 | 0.00 | 0.00 | 0.00 | 100 | 1015.0 |
| 20260906085207 | 25 | 36 | 8.0 | 11.3 | 0.00 | 0.00 | 0.00 | 100 | 1015.0 |
| 20260906084708 | 24 | 37 | 4.8 | 9.7 | 0.00 | 0.00 | 0.00 | 100 | 1014.0 |
| 20260906084206 | 24 | 58 | 6.4 | 11.3 | 0.00 | 0.00 | 0.00 | 100 | 1014.0 |
| 20260906083706 | 23 | 49 | 8.0 | 12.9 | 0.00 | 0.00 | 0.00 | 100 | 1014.0 |
| 20260906083206 | 23 | 46 | 6.4 | 12.9 | 0.00 | 0.00 | 0.00 | 100 | 1014.0 |
| 20260906082706 | 23 | 40 | 8.0 | 17.7 | 0.00 | 0.00 | 0.00 | 100 | 1014.0 |
| 20260906082206 | 23 | 52 | 1.6 | 9.7 | 0.00 | 0.00 | 0.00 | 100 | 1013.0 |
| 20260906081707 | 23 | 128 | 0.0 | 0.0 | 0.00 | 0.00 | 0.00 | 100 | 1013.0 |
| 20260906081206 | 23 | 160 | 0.0 | 0.0 | 0.00 | 0.00 | 0.00 | 100 | 1013.0 |
| 20260906080706 | 23 | 175 | 0.0 | 0.0 | 0.00 | 0.00 | 0.00 | 100 | 1013.0 |
| 20260906080206 | 23 | 148 | 0.0 | 0.0 | 0.00 | 0.00 | 0.00 | 100 | 1013.0 |
| 20260906075707 | 23 | 148 | 0.0 | 0.0 | 0.00 | 0.00 | 0.00 | 100 | 1013.0 |
| 20260906075206 | 23 | 143 | 0.0 | 0.0 | 0.00 | 0.00 | 0.00 | 100 | 1013.0 |
| 20260906074706 | 23 | 140 | 0.0 | 0.0 | 0.00 | 0.00 | 0.00 | 100 | 1013.0 |
| 20260906074206 | 23 | 146 | 0.0 | 0.0 | 0.00 | 0.00 | 0.00 | 100 | 1013.0 |
| 20260906073706 | 23 | 138 | 0.0 | 0.0 | 0.00 | 0.00 | 0.00 | 100 | 1013.0 |
| 20260906073206 | 23 | 148 | 0.0 | 0.0 | 0.00 | 0.00 | 0.00 | 100 | 1013.0 |
| 20260906072707 | 23 | 150 | 0.0 | 0.0 | 0.00 | 0.00 | 0.00 | 100 | 1013.0 |
| 20260906072206 | 23 | 171 | 0.0 | 0.0 | 0.00 | 0.00 | 0.00 | 100 | 1013.0 |
| 20260906071706 | 23 | 147 | 0.0 | 0.0 | 0.00 | 0.00 | 0.00 | 100 | 1013.0 |
| 20260906071206 | 23 | 130 | 0.0 | 0.0 | 0.00 | 0.00 | 0.00 | 100 | 1013.0 |
| 20260906070706 | 23 | 130 | 0.0 | 0.0 | 0.00 | 0.00 | 0.00 | 100 | 1013.0 |
| 20260906070206 | 23 | 130 | 0.0 | 0.0 | 0.00 | 0.00 | 0.00 | 100 | 1013.0 |
| 20260906065706 | 23 | 130 | 0.0 | 0.0 | 0.00 | 0.00 | 0.00 | 100 | 1013.0 |
| 20260906065206 | 23 | 130 | 0.0 | 0.0 | 0.00 | 0.00 | 0.00 | 100 | 1013.0 |
| 20260906064706 | 23 | 162 | 0.0 | 0.0 | 0.00 | 0.00 | 0.00 | 100 | 1013.0 |
| 20260906064209 | 23 | 162 | 0.0 | 0.0 | 0.00 | 0.00 | 0.00 | 100 | 1013.0 |
| 20260906063706 | 23 | 162 | 0.0 | 0.0 | 0.00 | 0.00 | 0.00 | 100 | 1013.0 |
| 20260906063206 | 23 | 154 | 0.0 | 0.0 | 0.00 | 0.00 | 0.00 | 100 | 1013.0 |
| 20260906062706 | 23 | 144 | 0.0 | 0.0 | 0.00 | 0.00 | 0.00 | 100 | 1013.0 |
| 20260906062207 | 23 | 144 | 0.0 | 0.0 | 0.00 | 0.00 | 0.00 | 100 | 1013.0 |
| 20260906061706 | 23 | 144 | 0.0 | 0.0 | 0.00 | 0.00 | 0.00 | 100 | 1013.0 |
| 20260906061206 | 24 | 97 | 0.0 | 0.0 | 0.00 | 0.00 | 0.00 | 100 | 1013.0 |
| 20260906060706 | 24 | 144 | 0.0 | 0.0 | 0.00 | 0.00 | 0.00 | 100 | 1013.0 |
| 20260906060207 | 24 | 131 | 0.0 | 0.0 | 0.00 | 0.00 | 0.00 | 100 | 1013.0 |
| 20260906055706 | 24 | 153 | 0.0 | 0.0 | 0.00 | 0.00 | 0.00 | 100 | 1013.0 |
| 20260906055207 | 24 | 174 | 0.0 | 0.0 | 0.00 | 0.00 | 0.00 | 100 | 1013.0 |
| 20260906054707 | 24 | 143 | 0.0 | 0.0 | 0.00 | 0.00 | 0.00 | 100 | 1013.0 |
| 20260906054206 | 24 | 142 | 0.0 | 0.0 | 0.00 | 0.00 | 0.00 | 100 | 1013.0 |
| 20260906053220 | 24 | 158 | 0.0 | 0.0 | 0.00 | 0.00 | 0.00 | 100 | 1013.0 |
| 20260906052712 | 24 | 156 | 0.0 | 0.0 | 0.00 | 0.00 | 0.00 | 100 | 1013.0 |
| 20260906052206 | 24 | 165 | 0.0 | 0.0 | 0.00 | 0.00 | 0.00 | 100 | 1013.0 |
| 20260906051706 | 24 | 162 | 0.0 | 0.0 | 0.00 | 0.00 | 0.00 | 100 | 1013.0 |
| 20260906051208 | 24 | 154 | 0.0 | 0.0 | 0.00 | 0.00 | 0.00 | 100 | 1013.0 |
| 20260906050706 | 25 | 149 | 0.0 | 0.0 | 0.00 | 0.00 | 0.00 | 100 | 1014.0 |
| 20260906050206 | 24 | 154 | 0.0 | 0.0 | 0.00 | 0.00 | 0.00 | 100 | 1014.0 |
| 20260906045706 | 25 | 154 | 0.0 | 0.0 | 0.00 | 0.00 | 0.00 | 100 | 1014.0 |
| 20260906045206 | 25 | 154 | 0.0 | 0.0 | 0.00 | 0.00 | 0.00 | 100 | 1014.0 |
| 20260906044708 | 25 | 154 | 0.0 | 0.0 | 0.00 | 0.00 | 0.00 | 100 | 1014.0 |
| 20260906044207 | 25 | 154 | 0.0 | 0.0 | 0.00 | 0.00 | 0.00 | 100 | 1014.0 |
| 20260906043706 | 25 | 155 | 0.0 | 0.0 | 0.00 | 0.00 | 0.00 | 100 | 1014.0 |
| 20260906043206 | 25 | 139 | 0.0 | 0.0 | 0.00 | 0.00 | 0.00 | 100 | 1014.0 |
| 20260906042707 | 25 | 138 | 0.0 | 0.0 | 0.00 | 0.00 | 0.00 | 100 | 1014.0 |
| 20260906042206 | 25 | 137 | 0.0 | 0.0 | 0.00 | 0.00 | 0.00 | 100 | 1014.0 |
| 20260906041706 | 25 | 137 | 0.0 | 0.0 | 0.00 | 0.00 | 0.00 | 100 | 1014.0 |
| 20260906041206 | 25 | 137 | 0.0 | 0.0 | 0.00 | 0.00 | 0.00 | 100 | 1014.0 |
| 20260906040706 | 25 | 137 | 0.0 | 0.0 | 0.00 | 0.00 | 0.00 | 100 | 1014.0 |
| 20260906040206 | 25 | 138 | 0.0 | 0.0 | 0.00 | 0.00 | 0.00 | 100 | 1014.0 |
| 20260906035706 | 25 | 136 | 0.0 | 0.0 | 0.00 | 0.00 | 0.00 | 100 | 1013.0 |
| 20260906035206 | 25 | 136 | 0.0 | 0.0 | 0.00 | 0.00 | 0.00 | 100 | 1014.0 |
| 20260906034706 | 25 | 134 | 0.0 | 0.0 | 0.00 | 0.00 | 0.00 | 100 | 1013.0 |
| 20260906034206 | 25 | 125 | 0.0 | 0.0 | 0.00 | 0.00 | 0.00 | 100 | 1013.0 |
| 20260906033706 | 25 | 142 | 0.0 | 0.0 | 0.00 | 0.00 | 0.00 | 100 | 1013.0 |
| 20260906033206 | 25 | 139 | 0.0 | 0.0 | 0.00 | 0.00 | 0.00 | 100 | 1013.0 |
| 20260906032706 | 25 | 140 | 0.0 | 0.0 | 0.00 | 0.00 | 0.00 | 100 | 1013.0 |
| 20260906032208 | 26 | 139 | 0.0 | 0.0 | 0.00 | 0.00 | 0.00 | 100 | 1013.0 |
| 20260906031707 | 26 | 138 | 0.0 | 0.0 | 0.00 | 0.00 | 0.00 | 100 | 1013.0 |
| 20260906031206 | 26 | 145 | 0.0 | 0.0 | 0.00 | 0.00 | 0.00 | 100 | 1013.0 |
| 20260906030706 | 26 | 145 | 0.0 | 0.0 | 0.00 | 0.00 | 0.00 | 100 | 1013.0 |
| 20260906030206 | 26 | 160 | 0.0 | 0.0 | 0.00 | 0.00 | 0.00 | 100 | 1013.0 |
| 20260906025707 | 26 | 158 | 0.0 | 0.0 | 0.00 | 0.00 | 0.00 | 100 | 1013.0 |
| 20260906025208 | 26 | 159 | 0.0 | 0.0 | 0.00 | 0.00 | 0.00 | 100 | 1013.0 |
| 20260906024706 | 26 | 158 | 0.0 | 0.0 | 0.00 | 0.00 | 0.00 | 100 | 1013.0 |
| 20260906024206 | 26 | 150 | 0.0 | 0.0 | 0.00 | 0.00 | 0.00 | 99 | 1013.0 |
| 20260906023707 | 26 | 136 | 0.0 | 0.0 | 0.00 | 0.00 | 0.00 | 98 | 1013.0 |
| 20260906023207 | 26 | 143 | 0.0 | 0.0 | 0.00 | 0.00 | 0.00 | 98 | 1013.0 |
| 20260906022707 | 26 | 162 | 0.0 | 0.0 | 0.00 | 0.00 | 0.00 | 97 | 1013.0 |
| 20260906022207 | 26 | 162 | 0.0 | 0.0 | 0.00 | 0.00 | 0.00 | 97 | 1013.0 |
| 20260906021706 | 26 | 151 | 0.0 | 0.0 | 0.00 | 0.00 | 0.00 | 98 | 1013.0 |
| 20260906021206 | 27 | 157 | 0.0 | 0.0 | 0.00 | 0.00 | 0.00 | 97 | 1013.0 |
| 20260906020706 | 27 | 166 | 0.0 | 0.0 | 0.00 | 0.00 | 0.00 | 96 | 1013.0 |
| 20260906020207 | 27 | 151 | 0.0 | 0.0 | 0.00 | 0.00 | 0.00 | 96 | 1013.0 |
| 20260906015707 | 27 | 158 | 0.0 | 0.0 | 0.00 | 0.00 | 0.00 | 95 | 1013.0 |
| 20260906015207 | 27 | 130 | 0.0 | 0.0 | 0.00 | 0.00 | 0.00 | 94 | 1013.0 |
| 20260906014706 | 27 | 152 | 0.0 | 0.0 | 0.00 | 0.00 | 0.00 | 92 | 1013.0 |
| 20260906014206 | 28 | 154 | 0.0 | 0.0 | 0.00 | 0.00 | 0.00 | 91 | 1013.0 |
| 20260906013709 | 28 | 155 | 0.0 | 0.0 | 0.00 | 0.00 | 0.00 | 90 | 1013.0 |
| 20260906013206 | 28 | 155 | 0.0 | 0.0 | 0.00 | 0.00 | 0.00 | 89 | 1013.0 |
| 20260906012708 | 28 | 144 | 0.0 | 0.0 | 0.00 | 0.00 | 0.00 | 88 | 1013.0 |
| 20260906012206 | 28 | 143 | 0.0 | 0.0 | 0.00 | 0.00 | 0.00 | 87 | 1013.0 |
| 20260906011706 | 29 | 143 | 0.0 | 0.0 | 0.00 | 0.00 | 0.00 | 86 | 1013.0 |
| 20260906011206 | 29 | 143 | 0.0 | 0.0 | 0.00 | 0.00 | 0.00 | 86 | 1012.0 |
| 20260906010707 | 30 | 142 | 0.0 | 0.0 | 0.00 | 0.00 | 0.00 | 85 | 1012.0 |
| 20260906010207 | 30 | 142 | 0.0 | 0.0 | 0.00 | 0.00 | 0.00 | 84 | 1012.0 |
| 20260906005706 | 30 | 142 | 0.0 | 0.0 | 0.00 | 0.00 | 0.00 | 83 | 1012.0 |
| 20260906005206 | 30 | 143 | 0.0 | 0.0 | 0.00 | 0.00 | 0.00 | 82 | 1012.0 |
| 20260906004707 | 31 | 142 | 0.0 | 0.0 | 0.00 | 0.00 | 0.00 | 80 | 1012.0 |
| 20260906004206 | 31 | 142 | 0.0 | 0.0 | 0.00 | 0.00 | 0.00 | 79 | 1012.0 |
| 20260906003706 | 31 | 142 | 0.0 | 0.0 | 0.00 | 0.00 | 0.00 | 78 | 1012.0 |
| 20260906003206 | 31 | 141 | 0.0 | 0.0 | 0.00 | 0.00 | 0.00 | 78 | 1012.0 |
| 20260906002706 | 32 | 139 | 0.0 | 0.0 | 0.00 | 0.00 | 0.00 | 77 | 1012.0 |
| 20260906002207 | 32 | 139 | 0.0 | 0.0 | 0.00 | 0.00 | 0.00 | 78 | 1012.0 |
| 20260906001706 | 32 | 140 | 0.0 | 0.0 | 0.00 | 0.00 | 0.00 | 72 | 1012.0 |
| 20260906001206 | 33 | 140 | 0.0 | 0.0 | 0.00 | 0.00 | 0.00 | 72 | 1012.0 |
| 20260906000706 | 33 | 131 | 0.0 | 0.0 | 0.00 | 0.00 | 0.00 | 71 | 1012.0 |
| 20260906000206 | 33 | 130 | 0.0 | 1.6 | 0.00 | 0.00 | 0.00 | 70 | 1012.0 |
| 20260905235707 | 35 | 123 | 0.0 | 0.0 | 0.00 | 0.00 | 0.00 | 67 | 1012.0 |
| 20260905235206 | 35 | 131 | 0.0 | 0.0 | 0.00 | 0.00 | 0.00 | 65 | 1012.0 |
| 20260905234706 | 36 | 129 | 0.0 | 0.0 | 0.00 | 0.00 | 0.00 | 65 | 1012.0 |
| 20260905234206 | 37 | 147 | 0.0 | 0.0 | 0.00 | 0.00 | 0.00 | 62 | 1013.0 |
| 20260905233706 | 37 | 139 | 0.0 | 3.2 | 0.00 | 0.00 | 0.00 | 61 | 1013.0 |
| 20260905233206 | 38 | 87 | 0.0 | 0.0 | 0.00 | 0.00 | 0.00 | 60 | 1012.0 |
| 20260905232707 | 40 | 139 | 0.0 | 0.0 | 0.00 | 0.00 | 0.00 | 55 | 1012.0 |
| 20260905232206 | 40 | 139 | 0.0 | 1.6 | 0.00 | 0.00 | 0.00 | 51 | 1012.0 |
| 20260905231706 | 41 | 148 | 0.0 | 3.2 | 0.00 | 0.00 | 0.00 | 50 | 1012.0 |
| 20260905231206 | 41 | 100 | 0.0 | 3.2 | 0.00 | 0.00 | 0.00 | 51 | 1012.0 |
| 20260905230707 | 40 | 31 | 0.0 | 4.8 | 0.00 | 0.00 | 0.00 | 50 | 1012.0 |
| 20260905230210 | 40 | 84 | 3.2 | 6.4 | 0.00 | 0.00 | 0.00 | 49 | 1012.0 |
| 20260905225706 | 41 | 113 | 1.6 | 4.8 | 0.00 | 0.00 | 0.00 | 50 | 1012.0 |
| 20260905225206 | 41 | 147 | 1.6 | 8.0 | 0.00 | 0.00 | 0.00 | 48 | 1012.0 |
| 20260905224709 | 41 | 42 | 1.6 | 4.8 | 0.00 | 0.00 | 0.00 | 49 | 1012.0 |
| 20260905224207 | 41 | 137 | 1.6 | 6.4 | 0.00 | 0.00 | 0.00 | 47 | 1012.0 |
| 20260905223706 | 42 | 32 | 3.2 | 8.0 | 0.00 | 0.00 | 0.00 | 46 | 1012.0 |
| 20260905223206 | 42 | 22 | 0.0 | 6.4 | 0.00 | 0.00 | 0.00 | 46 | 1012.0 |
| 20260905222706 | 42 | 113 | 0.0 | 4.8 | 0.00 | 0.00 | 0.00 | 47 | 1012.0 |
| 20260905222206 | 42 | 126 | 0.0 | 4.8 | 0.00 | 0.00 | 0.00 | 46 | 1012.0 |
| 20260905221706 | 41 | 145 | 3.2 | 9.7 | 0.00 | 0.00 | 0.00 | 47 | 1012.0 |
| 20260905221206 | 41 | 113 | 0.0 | 1.6 | 0.00 | 0.00 | 0.00 | 47 | 1012.0 |
| 20260905220706 | 41 | 141 | 0.0 | 3.2 | 0.00 | 0.00 | 0.00 | 47 | 1013.0 |
| 20260905220208 | 40 | 60 | 3.2 | 6.4 | 0.00 | 0.00 | 0.00 | 47 | 1013.0 |
| 20260905215707 | 39 | 26 | 4.8 | 11.3 | 0.00 | 0.00 | 0.00 | 50 | 1013.0 |
| 20260905215207 | 37 | 94 | 6.4 | 12.9 | 0.00 | 0.00 | 0.00 | 51 | 1013.0 |
| 20260905214706 | 39 | 323 | 3.2 | 9.7 | 0.00 | 0.00 | 0.00 | 49 | 1013.0 |
| 20260905214206 | 38 | 308 | 6.4 | 11.3 | 0.00 | 0.00 | 0.00 | 50 | 1013.0 |
| 20260905213706 | 39 | 349 | 6.4 | 9.7 | 0.00 | 0.00 | 0.00 | 51 | 1013.0 |
| 20260905213206 | 40 | 347 | 4.8 | 9.7 | 0.00 | 0.00 | 0.00 | 50 | 1013.0 |
| 20260905212706 | 41 | 315 | 4.8 | 11.3 | 0.00 | 0.00 | 0.00 | 48 | 1013.0 |
| 20260905212208 | 40 | 110 | 1.6 | 8.0 | 0.00 | 0.00 | 0.00 | 48 | 1013.0 |
| 20260905211708 | 41 | 239 | 1.6 | 9.7 | 0.00 | 0.00 | 0.00 | 46 | 1013.0 |
| 20260905211206 | 41 | 94 | 3.2 | 9.7 | 0.00 | 0.00 | 0.00 | 46 | 1013.0 |
| 20260905210707 | 41 | 34 | 4.8 | 9.7 | 0.00 | 0.00 | 0.00 | 48 | 1013.0 |
| 20260905210207 | 42 | 62 | 4.8 | 9.7 | 0.00 | 0.00 | 0.00 | 47 | 1013.0 |
| 20260905205706 | 42 | 125 | 4.8 | 9.7 | 0.00 | 0.00 | 0.00 | 49 | 1013.0 |
| 20260905205206 | 41 | 29 | 3.2 | 11.3 | 0.00 | 0.00 | 0.00 | 50 | 1013.0 |
| 20260905204706 | 42 | 295 | 3.2 | 6.4 | 0.00 | 0.00 | 0.00 | 47 | 1013.0 |
| 20260905204206 | 41 | 144 | 3.2 | 8.0 | 0.00 | 0.00 | 0.00 | 47 | 1013.0 |
| 20260905203706 | 41 | 30 | 9.7 | 14.5 | 0.00 | 0.00 | 0.00 | 48 | 1013.0 |
| 20260905203206 | 41 | 50 | 3.2 | 12.9 | 0.00 | 0.00 | 0.00 | 47 | 1013.0 |
| 20260905202706 | 40 | 57 | 6.4 | 11.3 | 0.00 | 0.00 | 0.00 | 50 | 1013.0 |
| 20260905202207 | 40 | 76 | 6.4 | 12.9 | 0.00 | 0.00 | 0.00 | 50 | 1013.0 |
| 20260905201707 | 40 | 329 | 8.0 | 16.1 | 0.00 | 0.00 | 0.00 | 49 | 1013.0 |
| 20260905201206 | 40 | 62 | 4.8 | 12.9 | 0.00 | 0.00 | 0.00 | 51 | 1013.0 |
| 20260905200707 | 41 | 52 | 4.8 | 11.3 | 0.00 | 0.00 | 0.00 | 50 | 1014.0 |
| 20260905200206 | 41 | 120 | 3.2 | 11.3 | 0.00 | 0.00 | 0.00 | 49 | 1014.0 |
| 20260905195707 | 41 | 77 | 3.2 | 8.0 | 0.00 | 0.00 | 0.00 | 50 | 1014.0 |
| 20260905195206 | 41 | 105 | 3.2 | 6.4 | 0.00 | 0.00 | 0.00 | 48 | 1014.0 |
| 20260905194707 | 41 | 97 | 3.2 | 8.0 | 0.00 | 0.00 | 0.00 | 50 | 1014.0 |
| 20260905194206 | 40 | 72 | 4.8 | 4.8 | 0.00 | 0.00 | 0.00 | 50 | 1014.0 |
| 20260905193706 | 40 | 72 | 6.4 | 9.7 | 0.00 | 0.00 | 0.00 | 50 | 1014.0 |
| 20260905193207 | 41 | 52 | 6.4 | 12.9 | 0.00 | 0.00 | 0.00 | 49 | 1014.0 |
| 20260905192708 | 41 | 115 | 3.2 | 8.0 | 0.00 | 0.00 | 0.00 | 51 | 1014.0 |
| 20260905192206 | 40 | 233 | 1.6 | 8.0 | 0.00 | 0.00 | 0.00 | 51 | 1014.0 |
| 20260905191707 | 40 | 103 | 1.6 | 8.0 | 0.00 | 0.00 | 0.00 | 51 | 1014.0 |
| 20260905191210 | 40 | 131 | 3.2 | 6.4 | 0.00 | 0.00 | 0.00 | 50 | 1014.0 |
| 20260905190706 | 40 | 100 | 4.8 | 12.9 | 0.00 | 0.00 | 0.00 | 50 | 1015.0 |
| 20260905190206 | 40 | 132 | 4.8 | 9.7 | 0.00 | 0.00 | 0.00 | 53 | 1015.0 |
| 20260905185706 | 40 | 84 | 1.6 | 8.0 | 0.00 | 0.00 | 0.00 | 53 | 1015.0 |
| 20260905185206 | 40 | 20 | 4.8 | 12.9 | 0.00 | 0.00 | 0.00 | 53 | 1015.0 |
| 20260905184706 | 38 | 123 | 4.8 | 16.1 | 0.00 | 0.00 | 0.00 | 56 | 1015.0 |
| 20260905184207 | 38 | 39 | 8.0 | 12.9 | 0.00 | 0.00 | 0.00 | 56 | 1015.0 |
| 20260905183706 | 38 | 16 | 6.4 | 12.9 | 0.00 | 0.00 | 0.00 | 56 | 1015.0 |
| 20260905183207 | 38 | 114 | 4.8 | 9.7 | 0.00 | 0.00 | 0.00 | 55 | 1015.0 |
| 20260905182706 | 37 | 234 | 6.4 | 12.9 | 0.00 | 0.00 | 0.00 | 57 | 1015.0 |
| 20260905182207 | 38 | 101 | 4.8 | 12.9 | 0.00 | 0.00 | 0.00 | 57 | 1015.0 |
| 20260905181707 | 37 | 30 | 6.4 | 17.7 | 0.00 | 0.00 | 0.00 | 58 | 1015.0 |
| 20260905181206 | 38 | 129 | 4.8 | 11.3 | 0.00 | 0.00 | 0.00 | 59 | 1015.0 |
| 20260905180706 | 37 | 73 | 4.8 | 6.4 | 0.00 | 0.00 | 0.00 | 58 | 1015.0 |
| 20260905180206 | 38 | 56 | 3.2 | 6.4 | 0.00 | 0.00 | 0.00 | 57 | 1015.0 |
| 20260905175706 | 38 | 119 | 3.2 | 9.7 | 0.00 | 0.00 | 0.00 | 58 | 1015.0 |
| 20260905175207 | 38 | 29 | 3.2 | 9.7 | 0.00 | 0.00 | 0.00 | 61 | 1015.0 |
| 20260905174706 | 37 | 325 | 9.7 | 14.5 | 0.00 | 0.00 | 0.00 | 61 | 1015.0 |
| 20260905174207 | 38 | 55 | 4.8 | 11.3 | 0.00 | 0.00 | 0.00 | 58 | 1015.0 |
| 20260905173707 | 38 | 137 | 3.2 | 9.7 | 0.00 | 0.00 | 0.00 | 60 | 1015.0 |
| 20260905173206 | 38 | 138 | 3.2 | 9.7 | 0.00 | 0.00 | 0.00 | 61 | 1015.0 |
| 20260905172706 | 37 | 104 | 4.8 | 11.3 | 0.00 | 0.00 | 0.00 | 61 | 1015.0 |
| 20260905172206 | 37 | 358 | 3.2 | 9.7 | 0.00 | 0.00 | 0.00 | 62 | 1016.0 |
| 20260905171707 | 37 | 98 | 4.8 | 11.3 | 0.00 | 0.00 | 0.00 | 62 | 1016.0 |
| 20260905171207 | 37 | 32 | 4.8 | 14.5 | 0.00 | 0.00 | 0.00 | 60 | 1016.0 |
| 20260905170706 | 37 | 75 | 3.2 | 6.4 | 0.00 | 0.00 | 0.00 | 62 | 1016.0 |
| 20260905170210 | 37 | 129 | 3.2 | 8.0 | 0.00 | 0.00 | 0.00 | 64 | 1016.0 |
| 20260905165706 | 36 | 81 | 4.8 | 9.7 | 0.00 | 0.00 | 0.00 | 63 | 1016.0 |
| 20260905165208 | 37 | 102 | 4.8 | 9.7 | 0.00 | 0.00 | 0.00 | 63 | 1016.0 |
| 20260905164706 | 37 | 40 | 3.2 | 9.7 | 0.00 | 0.00 | 0.00 | 62 | 1016.0 |
| 20260905164206 | 37 | 123 | 3.2 | 8.0 | 0.00 | 0.00 | 0.00 | 64 | 1016.0 |
| 20260905163706 | 36 | 154 | 3.2 | 9.7 | 0.00 | 0.00 | 0.00 | 65 | 1016.0 |
| 20260905163206 | 36 | 140 | 3.2 | 9.7 | 0.00 | 0.00 | 0.00 | 65 | 1016.0 |
| 20260905162707 | 36 | 153 | 3.2 | 6.4 | 0.00 | 0.00 | 0.00 | 62 | 1016.0 |
| 20260905162207 | 36 | 57 | 3.2 | 6.4 | 0.00 | 0.00 | 0.00 | 66 | 1016.0 |
| 20260905161706 | 35 | 48 | 3.2 | 8.0 | 0.00 | 0.00 | 0.00 | 68 | 1016.0 |
| 20260905161206 | 36 | 298 | 3.2 | 9.7 | 0.00 | 0.00 | 0.00 | 65 | 1016.0 |
| 20260905160706 | 36 | 41 | 4.8 | 9.7 | 0.00 | 0.00 | 0.00 | 67 | 1016.0 |
| 20260905160207 | 35 | 40 | 1.6 | 6.4 | 0.00 | 0.00 | 0.00 | 68 | 1016.0 |
| 20260905155708 | 35 | 98 | 3.2 | 8.0 | 0.00 | 0.00 | 0.00 | 69 | 1016.0 |
| 20260905155207 | 35 | 29 | 3.2 | 9.7 | 0.00 | 0.00 | 0.00 | 70 | 1016.0 |
| 20260905154707 | 34 | 41 | 3.2 | 6.4 | 0.00 | 0.00 | 0.00 | 73 | 1016.0 |
| 20260905154208 | 33 | 39 | 0.0 | 4.8 | 0.00 | 0.00 | 0.00 | 74 | 1016.0 |
| 20260905153707 | 34 | 117 | 1.6 | 4.8 | 0.00 | 0.00 | 0.00 | 72 | 1016.0 |
| 20260905153206 | 34 | 113 | 1.6 | 6.4 | 0.00 | 0.00 | 0.00 | 74 | 1016.0 |
| 20260905152711 | 33 | 97 | 1.6 | 4.8 | 0.00 | 0.00 | 0.00 | 74 | 1016.0 |
| 20260905152206 | 33 | 97 | 3.2 | 6.4 | 0.00 | 0.00 | 0.00 | 76 | 1016.0 |
| 20260905151707 | 33 | 135 | 1.6 | 4.8 | 0.00 | 0.00 | 0.00 | 76 | 1016.0 |
| 20260905151206 | 33 | 156 | 1.6 | 6.4 | 0.00 | 0.00 | 0.00 | 76 | 1016.0 |
| 20260905150706 | 33 | 311 | 3.2 | 6.4 | 0.00 | 0.00 | 0.00 | 78 | 1016.0 |
| 20260905150206 | 32 | 148 | 0.0 | 3.2 | 0.00 | 0.00 | 0.00 | 76 | 1016.0 |
| 20260905145707 | 32 | 148 | 1.6 | 4.8 | 0.00 | 0.00 | 0.00 | 76 | 1016.0 |
| 20260905145207 | 32 | 162 | 1.6 | 4.8 | 0.00 | 0.00 | 0.00 | 80 | 1016.0 |
| 20260905144706 | 32 | 139 | 1.6 | 6.4 | 0.00 | 0.00 | 0.00 | 82 | 1016.0 |
| 20260905144207 | 31 | 117 | 3.2 | 4.8 | 0.00 | 0.00 | 0.00 | 84 | 1016.0 |
| 20260905143706 | 31 | 148 | 3.2 | 6.4 | 0.00 | 0.00 | 0.00 | 87 | 1016.0 |
| 20260905143206 | 30 | 143 | 1.6 | 8.0 | 0.00 | 0.00 | 0.00 | 88 | 1016.0 |
| 20260905142707 | 29 | 74 | 0.0 | 4.8 | 0.00 | 0.00 | 0.00 | 91 | 1016.0 |
| 20260905142207 | 28 | 139 | 1.6 | 4.8 | 0.00 | 0.00 | 0.00 | 93 | 1016.0 |
| 20260905141706 | 28 | 46 | 1.6 | 4.8 | 0.00 | 0.00 | 0.00 | 94 | 1016.0 |
| 20260905141206 | 28 | 151 | 0.0 | 3.2 | 0.00 | 0.00 | 0.00 | 95 | 1016.0 |
| 20260905140706 | 27 | 60 | 0.0 | 4.8 | 0.00 | 0.00 | 0.00 | 96 | 1016.0 |
| 20260905140206 | 27 | 100 | 0.0 | 0.0 | 0.00 | 0.00 | 0.00 | 98 | 1016.0 |
| 20260905135706 | 27 | 127 | 0.0 | 0.0 | 0.00 | 0.00 | 0.00 | 98 | 1017.0 |
| 20260905135207 | 27 | 103 | 0.0 | 0.0 | 0.00 | 0.00 | 0.00 | 100 | 1017.0 |
| 20260905134706 | 27 | 139 | 0.0 | 0.0 | 0.00 | 0.00 | 0.00 | 100 | 1016.0 |
| 20260905134206 | 26 | 144 | 0.0 | 0.0 | 0.00 | 0.00 | 0.00 | 100 | 1016.0 |
| 20260905133706 | 26 | 73 | 0.0 | 0.0 | 0.00 | 0.00 | 0.00 | 100 | 1016.0 |
| 20260905133206 | 26 | 104 | 0.0 | 0.0 | 0.00 | 0.00 | 0.00 | 100 | 1016.0 |
| 20260905132707 | 25 | 134 | 0.0 | 0.0 | 0.00 | 0.00 | 0.00 | 100 | 1016.0 |
| 20260905132206 | 25 | 149 | 0.0 | 0.0 | 0.00 | 0.00 | 0.00 | 100 | 1016.0 |
| 20260905131706 | 25 | 82 | 0.0 | 0.0 | 0.00 | 0.00 | 0.00 | 100 | 1016.0 |
| 20260905131206 | 25 | 142 | 0.0 | 0.0 | 0.00 | 0.00 | 0.00 | 100 | 1016.0 |
| 20260905130706 | 24 | 123 | 0.0 | 0.0 | 0.00 | 0.00 | 0.00 | 100 | 1016.0 |
| 20260905130206 | 24 | 72 | 0.0 | 0.0 | 0.00 | 0.00 | 0.00 | 100 | 1016.0 |
| 20260905125708 | 23 | 62 | 0.0 | 0.0 | 0.00 | 0.00 | 0.00 | 100 | 1016.0 |
| 20260905125206 | 23 | 101 | 0.0 | 0.0 | 0.00 | 0.00 | 0.00 | 100 | 1016.0 |
| 20260905124707 | 23 | 138 | 0.0 | 0.0 | 0.00 | 0.00 | 0.00 | 100 | 1016.0 |
| 20260905124207 | 23 | 130 | 0.0 | 0.0 | 0.00 | 0.00 | 0.00 | 100 | 1016.0 |
| 20260905123706 | 23 | 117 | 0.0 | 0.0 | 0.00 | 0.00 | 0.00 | 100 | 1016.0 |
| 20260905123206 | 23 | 164 | 0.0 | 0.0 | 0.00 | 0.00 | 0.00 | 100 | 1016.0 |
| 20260905122706 | 23 | 164 | 0.0 | 0.0 | 0.00 | 0.00 | 0.00 | 100 | 1016.0 |
| 20260905122207 | 23 | 144 | 0.0 | 0.0 | 0.00 | 0.00 | 0.00 | 100 | 1016.0 |
| 20260905121706 | 22 | 148 | 0.0 | 0.0 | 0.00 | 0.00 | 0.00 | 100 | 1016.0 |
| 20260905121206 | 22 | 152 | 0.0 | 0.0 | 0.00 | 0.00 | 0.00 | 100 | 1016.0 |
| 20260905120706 | 22 | 133 | 0.0 | 0.0 | 0.00 | 0.00 | 0.00 | 100 | 1016.0 |
| 20260905120206 | 22 | 129 | 0.0 | 0.0 | 0.00 | 0.00 | 0.00 | 100 | 1016.0 |
| 20260905115706 | 22 | 137 | 0.0 | 0.0 | 0.00 | 0.00 | 0.00 | 100 | 1016.0 |
| 20260905115206 | 22 | 143 | 0.0 | 0.0 | 0.00 | 0.00 | 0.00 | 100 | 1016.0 |
| 20260905114706 | 22 | 132 | 0.0 | 0.0 | 0.00 | 0.00 | 0.00 | 100 | 1016.0 |
| 20260905114206 | 22 | 148 | 0.0 | 0.0 | 0.00 | 0.00 | 0.00 | 100 | 1016.0 |